#datint,netname,site,siteID,timestamp,IntT,BattV,AirT2,AirT,AirT_Avg,AirT_Max,AirT_Min,RH_Avg,RH_Max,RH_Min,EA_Avg,Td_Avg,Td_Max,Td_Min,WindS_Smp,WindS_Avg,WindD_Avg,WindD_SD,WindS_Max,ETo,ETr,SoilT4,SoilT8,SoilVWC8,SolarW_Avg,wetstate_Avg,wetT_Avg,Precip_accum,Precip_WPG,Precip_TB
15min,AgWx,beryljct,423,30JUL2020:00:00:00,65.0,12.9,62.2,63.7,61.6,65.1,57.3,33,55,20,0.541,31.1,41.5,22.3,1.754,2.1,284,25,3.3,-0.00001,0.00004,73.9,73.7,10,0,.,.,13.47,0.00,0.00
15min,AgWx,beryljct,423,30JUL2020:00:15:00,64.0,12.9,62.0,61.5,60.9,63.4,58.7,36,48,24,0.640,33.1,38.9,25.9,2.587,1.3,332,25,3.1,-0.00016,-0.00019,73.5,73.7,10,0,.,.,13.46,0.00,0.00
15min,AgWx,beryljct,423,30JUL2020:00:30:00,62.9,12.88,58.7,58.7,60.4,62.6,57.8,37,50,27,0.721,34.0,39.6,27.7,0,0.9,350,1.0,2.7,-0.00023,-0.00032,73.2,73.6,10,0,.,.,13.47,0.00,0.00
15min,AgWx,beryljct,423,30JUL2020:00:45:00,62.0,12.87,64.6,65.5,61.4,65.5,58.1,30,47,15,0.426,28.2,38.3,16.5,0.877,0.7,327,20,2.0,-0.00029,-0.00042,72.9,73.5,11,0,.,.,13.47,0.00,0.00
15min,AgWx,beryljct,423,30JUL2020:01:00:00,61.5,12.87,66.9,63.2,61.0,65.3,58.9,40,50,21,0.617,36.3,40.4,23.9,1.337,0.9,284,23,2.3,-0.00023,-0.00032,72.5,73.5,9,0,.,.,13.47,0.00,0.00
15min,AgWx,beryljct,423,30JUL2020:01:15:00,60.7,12.85,56.9,57.6,58.4,64.3,56.7,43,50,29,0.803,35.8,39.8,31.1,0,0.1,236,6.8,1.3,-0.00038,-0.00060,72.2,73.4,10,0,.,.,13.47,0.00,0.00
15min,AgWx,beryljct,423,30JUL2020:01:30:00,59.8,12.85,57.4,56.6,56.9,58.3,55.5,50,60,42,0.760,38.2,41.7,34.4,0,0.2,224,0.2,0.9,-0.00035,-0.00054,71.9,73.3,10,0,.,.,13.47,0.00,0.00
15min,AgWx,beryljct,423,30JUL2020:01:45:00,59.1,12.84,58.5,59.7,59.0,60.9,56.7,34,47,19,0.542,29.9,37.1,18.8,0.833,0.4,293,16,1.7,-0.00034,-0.00050,71.6,73.2,10,0,.,.,13.48,0.00,0.00
15min,AgWx,beryljct,423,30JUL2020:02:00:00,58.6,12.83,52.8,53.0,57.1,59.6,53.0,45,67,34,0.915,35.7,42.5,30.0,3.157,2.1,54,30,3.9,-0.00005,-0.00004,71.3,73.1,10,0,.,.,13.48,0.00,0.00
15min,AgWx,beryljct,423,30JUL2020:02:15:00,57.7,12.82,56.9,55.7,53.6,55.7,52.3,51,67,32,0.485,35.3,42.1,25.1,2.17,1.0,156,38,3.1,-0.00021,-0.00029,71.0,73.0,10,0,.,.,13.48,0.00,0.00
15min,AgWx,beryljct,423,30JUL2020:02:30:00,57.0,12.81,52.1,56.0,55.7,57.8,53.0,39,52,33,0.541,30.6,36.1,26.9,2.236,0.8,203,19,3.4,-0.00025,-0.00035,70.7,72.9,10,0,.,.,13.49,0.00,0.00
15min,AgWx,beryljct,423,30JUL2020:02:45:00,56.4,12.81,52.6,52.0,53.7,55.7,51.7,38,47,28,0.364,28.8,34.4,19.5,3.88,3.5,179,7.6,5.3,0.00013,0.00022,70.4,72.8,10,0,.,.,13.48,0.00,0.00
15min,AgWx,beryljct,423,30JUL2020:03:00:00,55.5,12.8,52.1,51.7,52.0,53.3,50.7,37,50,25,0.611,26.1,33.8,17.8,3.398,2.9,201,17,4.8,0.00007,0.00014,70.1,72.7,10,0,.,.,13.49,0.00,0.00
15min,AgWx,beryljct,423,30JUL2020:03:15:00,54.9,12.79,49.0,49.9,53.6,57.8,49.9,41,62,23,0.751,30.0,37.6,20.6,1.447,3.0,172,25,4.3,0.00007,0.00013,69.8,72.6,10,0,.,.,13.49,0.00,0.00
15min,AgWx,beryljct,423,30JUL2020:03:30:00,54.2,12.78,50.2,50.3,50.1,51.9,48.9,44,61,34,0.465,28.7,37.0,23.3,3.003,3.3,180,5.4,4.3,0.00007,0.00013,69.5,72.4,10,0,.,.,13.49,0.00,0.00
15min,AgWx,beryljct,423,30JUL2020:03:45:00,53.4,12.78,47.9,48.7,49.1,50.6,47.3,46,57,37,0.527,29.2,33.0,25.0,2.653,2.7,170,15,5.3,0.00001,0.00005,69.3,72.3,10,0,.,.,13.49,0.00,0.00
15min,AgWx,beryljct,423,30JUL2020:04:00:00,52.7,12.77,54.9,51.1,48.8,51.1,47.7,42,47,31,0.443,26.4,29.9,21.5,2.126,2.3,190,7.6,3.5,-0.00001,0.00002,69.0,72.2,9,0,.,.,13.49,0.00,0.00
15min,AgWx,beryljct,423,30JUL2020:04:15:00,52.3,12.75,53.4,52.9,51.5,52.9,49.4,40,47,32,0.444,28.0,31.7,23.4,0.482,1.2,175,7.2,2.6,-0.00016,-0.00021,68.7,72.1,10,0,.,.,13.49,0.00,0.00
15min,AgWx,beryljct,423,30JUL2020:04:30:00,52.2,12.75,50.3,51.0,52.1,53.0,50.8,48,64,30,0.812,32.8,39.2,22.8,0.789,0.6,173,0.4,1.9,-0.00027,-0.00039,68.4,72.0,10,0,.,.,13.49,0.00,0.00
15min,AgWx,beryljct,423,30JUL2020:04:45:00,51.9,12.73,50.1,49.0,48.6,50.8,47.8,61,72,50,0.712,35.7,39.8,30.9,1.776,1.4,322,27,2.7,-0.00016,-0.00022,68.2,71.9,10,0,.,.,13.49,0.00,0.00
15min,AgWx,beryljct,423,30JUL2020:05:00:00,51.5,12.73,48.5,50.1,49.1,50.6,47.3,51,64,31,0.535,31.2,36.7,21.1,1.513,1.7,18,16,3.2,-0.00011,-0.00013,67.9,71.7,10,0,.,.,13.49,0.00,0.00
15min,AgWx,beryljct,423,30JUL2020:05:15:00,51.1,12.72,48.2,48.1,47.5,49.9,45.9,53,69,42,0.507,31.1,36.4,25.6,0.614,0.3,10,0.6,1.1,-0.00029,-0.00044,67.6,71.6,10,0,.,.,13.49,0.00,0.00
15min,AgWx,beryljct,423,30JUL2020:05:30:00,50.6,12.72,45.2,45.7,47.4,48.2,45.6,43,50,38,0.484,26.1,29.0,23.4,2.587,1.6,16,11,3.7,-0.00010,-0.00011,67.4,71.5,10,0,.,.,13.49,0.00,0.00
15min,AgWx,beryljct,423,30JUL2020:05:45:00,49.8,12.72,45.1,44.4,44.3,47.0,43.1,55,63,34,0.607,28.8,32.6,20.3,0.767,1.6,22,43,4.1,-0.00012,-0.00015,67.2,71.4,10,0,.,.,13.49,0.00,0.00
15min,AgWx,beryljct,423,30JUL2020:06:00:00,49.1,12.7,47.0,46.0,45.5,46.0,44.4,43,59,38,0.522,24.0,31.1,21.0,0.614,0.8,349,31,2.3,0.00012,0.00020,66.9,71.2,10,0,.,.,13.49,0.00,0.00
15min,AgWx,beryljct,423,30JUL2020:06:15:00,48.6,12.7,45.1,44.7,45.9,46.9,44.6,49,56,41,0.542,27.9,30.0,23.8,2.258,1.9,337,46,3.6,0.00023,0.00039,66.7,71.1,10,0,.,.,13.49,0.00,0.00
15min,AgWx,beryljct,423,30JUL2020:06:30:00,48.1,12.7,44.2,43.4,44.5,46.1,43.0,62,77,47,0.683,32.1,36.5,27.0,0.636,2.1,174,87,5.3,0.00019,0.00033,66.4,71.0,10,1,.,.,13.49,0.00,0.00
15min,AgWx,beryljct,423,30JUL2020:06:45:00,47.5,12.7,42.6,42.6,43.9,45.3,42.6,57,71,42,0.599,29.6,34.7,23.3,3.705,4.3,188,40,6.6,0.00040,0.00067,66.2,70.9,10,6,.,.,13.49,0.00,0.00
15min,AgWx,beryljct,423,30JUL2020:07:00:00,47.3,12.71,47.6,47.4,44.7,47.4,42.5,50,65,39,0.518,27.2,31.4,23.1,0.088,1.9,192,12,4.5,0.00040,0.00057,65.9,70.7,10,36,.,.,13.49,0.00,0.00
15min,AgWx,beryljct,423,30JUL2020:07:15:00,48.1,12.74,46.7,46.9,46.5,47.4,45.4,53,64,44,0.692,30.3,35.6,25.8,1.425,1.7,186,1.5,3.4,0.00055,0.00072,65.7,70.6,10,81,.,.,13.49,0.00,0.00
15min,AgWx,beryljct,423,30JUL2020:07:30:00,49.7,12.71,52.7,52.3,49.9,52.3,46.7,51,64,44,0.623,32.2,35.2,29.8,0,1.0,163,12,2.3,0.00071,0.00085,65.3,70.5,10,130,.,.,13.49,0.00,0.00
15min,AgWx,beryljct,423,30JUL2020:07:45:00,52.0,12.71,54.0,53.4,52.9,53.4,52.3,46,58,35,0.790,32.6,38.9,25.4,0,1.1,163,0.9,2.7,0.00086,0.00102,65.0,70.3,10,141,.,.,13.49,0.00,0.00
15min,AgWx,beryljct,423,30JUL2020:08:00:00,54.1,12.71,53.2,53.0,52.6,53.9,52.0,68,76,53,0.842,42.0,44.8,37.1,1.798,1.6,125,18,2.9,0.00098,0.00114,64.6,70.1,10,169,.,.,13.48,0.00,0.00
15min,AgWx,beryljct,423,30JUL2020:08:15:00,56.0,12.73,55.6,54.9,54.3,55.7,52.9,63,73,52,0.839,41.9,44.4,37.8,2.083,1.1,163,28,2.8,0.00115,0.00130,64.3,69.9,10,197,.,.,13.48,0.00,0.00
15min,AgWx,beryljct,423,30JUL2020:08:30:00,58.0,12.74,58.2,57.4,55.8,57.4,55.0,62,73,46,0.747,43.0,46.5,37.0,3.244,1.6,157,10,4.3,0.00156,0.00177,64.0,69.7,10,270,.,.,13.48,0.00,0.00
15min,AgWx,beryljct,423,30JUL2020:08:45:00,60.3,12.79,59.9,59.7,58.2,59.7,57.4,57,66,48,0.991,43.0,47.3,37.8,0.351,2.7,121,26,4.6,0.00205,0.00241,63.8,69.6,10,339,.,.,13.48,0.00,0.00
15min,AgWx,beryljct,423,30JUL2020:09:00:00,62.9,12.89,62.8,62.8,60.6,62.8,59.6,51,64,42,0.890,42.5,47.3,37.5,0.088,1.7,147,6.5,3.9,0.00237,0.00269,63.6,69.4,10,390,.,.,13.48,0.00,0.00
15min,AgWx,beryljct,423,30JUL2020:09:15:00,65.9,13.08,64.5,64.4,63.4,64.4,62.5,50,57,45,1.132,44.6,47.9,41.8,0,1.1,112,30,2.6,0.00272,0.00302,63.4,69.2,10,443,.,.,13.47,0.00,0.00
15min,AgWx,beryljct,423,30JUL2020:09:30:00,68.9,13.33,67.6,66.8,65.9,67.7,64.4,50,62,36,1.128,46.4,52.0,39.4,0.658,0.4,83,0.5,1.3,0.00309,0.00334,63.3,69.0,10,499,.,.,13.47,0.00,0.00
15min,AgWx,beryljct,423,30JUL2020:09:45:00,72.1,13.55,68.5,68.5,67.6,68.5,66.9,45,54,37,1.043,45.5,49.8,40.1,1.162,0.9,87,3.4,1.9,0.00351,0.00385,63.3,68.8,9,548,.,.,13.47,0.00,0.00
15min,AgWx,beryljct,423,30JUL2020:10:00:00,74.7,13.64,71.5,71.1,69.7,71.1,68.4,44,52,36,1.013,46.9,51.5,41.3,1.03,1.3,101,5.3,1.9,0.00391,0.00433,63.4,68.7,9,595,.,.,13.46,0.00,0.00
15min,AgWx,beryljct,423,30JUL2020:10:15:00,77.4,13.79,73.6,73.6,72.3,73.6,71.2,40,50,32,0.916,46.7,52.6,40.6,1.732,1.1,106,0.1,2.2,0.00428,0.00471,63.6,68.5,9,639,.,.,13.46,0.00,0.00
15min,AgWx,beryljct,423,30JUL2020:10:30:00,79.7,13.97,75.0,75.2,74.3,75.2,73.6,38,47,28,1.030,47.0,52.7,39.5,1.622,1.8,107,0.8,2.3,0.00475,0.00533,63.8,68.4,9,685,.,.,13.45,0.00,0.00
15min,AgWx,beryljct,423,30JUL2020:10:45:00,81.7,13.89,76.1,76.5,76.0,76.6,75.2,38,50,30,1.545,48.6,56.3,41.4,1.425,1.9,105,4.9,3.2,0.00512,0.00574,64.1,.,.,727,.,.,13.45,0.00,0.00
15min,AgWx,beryljct,423,30JUL2020:11:00:00,83.5,13.87,79.4,79.7,78.0,79.7,76.5,37,51,23,0.877,49.1,56.8,38.2,2.565,2.4,94,5.0,3.3,0.00554,0.00626,64.5,.,.,768,.,.,13.45,0.00,0.00
15min,AgWx,beryljct,423,30JUL2020:11:15:00,85.3,13.84,80.3,80.6,80.1,80.7,79.4,37,48,27,1.502,51.4,58.6,42.8,2.433,2.4,105,11,3.5,0.00589,0.00664,65.0,.,.,805,.,.,13.44,0.00,0.00
15min,AgWx,beryljct,423,30JUL2020:11:30:00,87.1,13.79,82.8,83.2,82.0,83.2,80.6,36,49,25,1.442,52.5,61.3,42.6,2.083,2.5,102,8.8,3.7,0.00622,0.00702,65.6,.,.,838,.,.,13.44,0.00,0.00
15min,AgWx,beryljct,423,30JUL2020:11:45:00,88.6,13.85,84.0,83.9,83.4,83.9,83.0,39,48,30,1.285,55.8,61.8,49.2,5.152,3.1,110,10,5.4,0.00656,0.00746,66.3,67.9,9,868,.,.,13.44,0.00,0.00
15min,AgWx,beryljct,423,30JUL2020:12:00:00,89.6,13.85,84.9,85.3,84.5,85.3,83.8,36,46,27,1.407,54.6,61.1,46.7,4.297,4.2,95,8.8,5.6,0.00695,0.00807,67.0,.,.,897,.,.,13.44,0.00,0.00
15min,AgWx,beryljct,423,30JUL2020:12:15:00,90.1,13.75,85.1,85.6,85.6,86.2,85.1,32,40,25,1.263,52.6,58.2,45.6,5.744,5.3,81,6.5,6.9,0.00733,0.00868,67.8,.,.,921,.,.,13.44,0.00,0.00
15min,AgWx,beryljct,423,30JUL2020:12:30:00,90.7,13.71,85.9,87.2,86.1,87.3,85.3,30,43,19,1.099,51.1,60.6,39.6,7.651,5.9,111,23,11.4,0.00760,0.00909,68.6,.,.,942,.,.,13.44,0.00,0.00
15min,AgWx,beryljct,423,30JUL2020:12:45:00,90.7,13.8,85.7,87.5,86.6,87.6,85.6,27,34,19,1.106,48.2,54.1,40.3,8.53,9.4,135,12,13.3,0.00821,0.01032,69.4,.,.,960,.,.,13.44,0.00,0.00
15min,AgWx,beryljct,423,30JUL2020:13:00:00,91.3,13.36,90.4,90.5,90.4,92.1,86.9,19,29,13,0.977,42.7,51.1,33.1,6.84,8.3,194,22,14.9,0.00858,0.01078,70.2,.,.,975,.,.,13.43,0.00,0.00
15min,AgWx,beryljct,423,30JUL2020:13:15:00,92.4,13.39,88.9,89.3,90.5,91.4,89.3,18,23,13,1.077,41.5,48.3,33.3,12.58,9.7,227,25,17.3,0.00886,0.01132,70.9,68.0,9,984,.,.,13.44,0.00,0.00
15min,AgWx,beryljct,423,30JUL2020:13:30:00,92.9,13.29,89.6,90.2,90.6,92.6,89.2,19,24,14,0.896,43.2,48.4,35.5,8.64,7.6,229,30,14.5,0.00858,0.01066,71.6,68.1,10,991,.,.,13.44,0.00,0.00
15min,AgWx,beryljct,423,30JUL2020:13:45:00,93.3,13.35,90.3,90.4,90.5,91.8,89.8,19,24,12,0.748,42.2,49.4,31.1,11.9,9.5,227,16,15.3,0.00890,0.01132,72.2,68.2,10,997,.,.,13.44,0.00,0.00
15min,AgWx,beryljct,423,30JUL2020:14:00:00,93.3,13.28,90.9,90.5,89.9,90.5,89.3,20,27,13,0.649,42.8,51.2,33.5,6.927,10.0,234,15,15.8,0.00895,0.01145,72.8,68.3,9,997,.,.,13.44,0.00,0.00
15min,AgWx,beryljct,423,30JUL2020:14:15:00,93.5,13.29,90.7,91.2,90.9,91.8,89.5,18,24,14,0.757,40.8,49.6,34.7,11.31,10.0,217,15,16.8,0.00904,0.01159,73.3,68.5,10,996,.,.,13.44,0.00,0.00
15min,AgWx,beryljct,423,30JUL2020:14:30:00,93.9,13.36,92.0,92.5,92.0,92.8,91.2,14,18,9.7,0.627,35.6,43.2,27.2,5.042,9.7,203,18,15.3,0.00910,0.01173,73.7,68.6,9,989,.,.,13.44,0.00,0.00
15min,AgWx,beryljct,423,30JUL2020:14:45:00,94.4,13.28,91.9,90.6,91.8,93.0,90.3,17,23,11,0.728,40.1,48.2,31.6,10.92,9.9,209,19,16.9,0.00892,0.01149,74.1,68.8,10,970,.,.,13.43,0.00,0.00
15min,AgWx,beryljct,423,30JUL2020:15:00:00,94.3,13.29,93.0,91.9,91.1,93.2,89.5,18,28,10,0.728,42.0,51.8,29.5,11.77,7.2,218,31,12.4,0.00825,0.01025,74.5,69.0,9,951,.,.,13.44,0.00,0.00
15min,AgWx,beryljct,423,30JUL2020:15:15:00,94.9,13.24,90.8,91.8,92.8,94.0,91.8,15,20,11,0.809,38.3,44.4,30.6,7.804,9.8,183,16,15.0,0.00877,0.01140,74.9,69.2,10,936,.,.,13.43,0.00,0.00
15min,AgWx,beryljct,423,30JUL2020:15:30:00,95.3,13.22,92.1,93.7,92.5,93.7,91.6,16,21,10,0.652,39.2,46.9,29.3,4.56,8.7,191,20,15.6,0.00828,0.01064,75.3,69.4,9,902,.,.,13.44,0.00,0.00
15min,AgWx,beryljct,423,30JUL2020:15:45:00,95.7,13.28,92.3,92.5,92.0,93.7,90.4,17,23,11,0.669,40.9,49.0,30.8,9.21,8.2,206,21,14.6,0.00790,0.01011,75.7,69.6,10,870,.,.,13.44,0.00,0.00
15min,AgWx,beryljct,423,30JUL2020:16:00:00,96.1,13.21,91.4,92.9,92.9,93.9,91.5,15,20,11,0.812,37.6,45.3,29.9,11.18,9.5,190,16,14.6,0.00790,0.01042,76.0,69.8,10,823,.,.,13.43,0.00,0.00
15min,AgWx,beryljct,423,30JUL2020:16:15:00,96.4,13.19,92.2,91.4,92.0,93.2,90.5,17,24,10,0.627,41.2,50.3,28.6,6.862,7.4,216,24,14.3,0.00735,0.00938,76.3,69.9,10,816,.,.,13.43,0.00,0.00
15min,AgWx,beryljct,423,30JUL2020:16:30:00,96.4,13.19,87.7,88.7,90.5,92.5,88.7,21,29,11,1.210,45.4,53.8,30.6,6.357,7.2,235,19,11.6,0.00654,0.00839,76.6,70.1,10,728,.,.,13.43,0.00,0.00
15min,AgWx,beryljct,423,30JUL2020:16:45:00,96.3,13.2,90.9,92.7,91.0,92.9,88.5,20,32,12,0.794,43.2,55.1,32.5,10.83,8.2,205,29,14.6,0.00653,0.00858,76.8,70.3,10,699,.,.,13.44,0.00,0.00
15min,AgWx,beryljct,423,30JUL2020:17:00:00,96.4,13.19,91.7,89.9,92.3,94.1,89.9,16,22,11,0.884,39.0,46.5,30.6,8.48,8.6,186,25,14.2,0.00676,0.00900,77.1,70.5,10,700,.,.,13.44,0.00,0.00
15min,AgWx,beryljct,423,30JUL2020:17:15:00,96.3,13.2,90.5,91.0,91.3,92.9,89.8,17,24,11,0.777,40.8,49.0,31.1,14.32,9.5,202,25,16.0,0.00654,0.00885,77.3,70.7,10,659,.,.,13.44,0.00,0.00
15min,AgWx,beryljct,423,30JUL2020:17:30:00,96.3,13.21,91.5,92.7,92.7,93.5,90.8,15,20,12,0.837,37.8,44.4,32.8,7.585,10.5,187,18,18.6,0.00649,0.00910,77.5,70.9,10,601,.,.,13.44,0.00,0.00
15min,AgWx,beryljct,423,30JUL2020:17:45:00,96.4,13.2,93.3,93.4,92.8,93.6,92.3,14,16,11,0.651,36.0,40.0,31.9,14.6,13.2,190,11,19.3,0.00680,0.00989,77.6,71.0,10,568,.,.,13.44,0.00,0.00
15min,AgWx,beryljct,423,30JUL2020:18:00:00,96.1,13.24,93.3,93.0,92.4,93.4,90.3,15,21,12,0.674,37.2,45.8,32.6,9.27,9.9,191,17,16.4,0.00577,0.00823,77.7,71.2,10,521,.,.,13.44,0.00,0.00
15min,AgWx,beryljct,423,30JUL2020:18:15:00,95.9,13.2,92.4,92.1,92.0,93.2,90.4,14,19,12,0.648,36.7,42.3,32.5,9.65,10.9,189,21,16.2,0.00561,0.00820,77.7,71.4,10,475,.,.,13.44,0.00,0.00
15min,AgWx,beryljct,423,30JUL2020:18:30:00,95.3,13.21,92.8,92.0,91.4,92.2,90.6,15,19,12,0.611,37.4,43.0,31.7,12.14,9.6,197,17,14.4,0.00492,0.00723,77.6,71.6,10,424,.,.,13.44,0.00,0.00
15min,AgWx,beryljct,423,30JUL2020:18:45:00,94.7,13.21,91.8,91.4,91.6,92.6,90.7,15,18,12,0.701,36.5,41.8,31.7,10.24,9.1,192,12,15.7,0.00444,0.00665,77.6,71.7,10,372,.,.,13.44,0.00,0.00
15min,AgWx,beryljct,423,30JUL2020:19:00:00,94.3,13.14,90.3,90.3,91.5,92.3,90.3,14,17,11,0.772,35.1,40.2,29.8,9.89,10.7,180,14,14.6,0.00447,0.00697,77.4,71.9,10,323,.,.,13.44,0.00,0.00
15min,AgWx,beryljct,423,30JUL2020:19:15:00,93.8,13.08,91.5,91.2,90.8,91.7,89.6,15,18,12,0.638,35.9,41.1,31.6,9.01,9.3,194,9.2,15.1,0.00374,0.00593,77.2,72.0,10,272,.,.,13.44,0.00,0.00
15min,AgWx,beryljct,423,30JUL2020:19:30:00,93.0,13.04,89.7,89.3,90.0,91.4,89.0,15,17,12,0.691,35.6,39.0,32.4,10.52,9.3,200,14,12.9,0.00333,0.00546,76.9,72.1,10,221,.,.,13.44,0.00,0.00
15min,AgWx,beryljct,423,30JUL2020:19:45:00,92.0,13.04,88.2,89.3,89.0,90.5,87.9,15,19,12,0.709,35.8,41.0,31.0,6.883,8.3,194,11,13.3,0.00274,0.00464,76.6,72.2,10,177,.,.,13.44,0.00,0.00
15min,AgWx,beryljct,423,30JUL2020:20:00:00,91.0,13,86.9,87.7,88.2,89.2,87.3,15,18,13,0.681,35.4,39.1,31.5,8.44,7.8,204,9.2,12.0,0.00166,0.00232,76.3,72.3,10,130,.,.,13.44,0.00,0.00
15min,AgWx,beryljct,423,30JUL2020:20:15:00,89.8,13.02,86.9,87.1,87.4,88.2,86.7,15,17,14,0.640,34.2,36.8,32.5,8.59,7.6,199,7.3,10.2,0.00149,0.00210,76.0,72.4,11,84,.,.,13.45,0.00,0.00
15min,AgWx,beryljct,423,30JUL2020:20:30:00,88.2,13.01,82.8,84.1,85.7,87.1,84.1,16,18,14,0.702,33.7,35.6,32.0,5.437,6.9,202,6.4,10.1,0.00119,0.00171,75.7,72.5,10,31,.,.,13.45,0.00,0.00
15min,AgWx,beryljct,423,30JUL2020:20:45:00,85.8,12.99,78.0,79.2,81.4,83.9,79.2,19,22,18,0.742,35.8,38.1,33.5,4.143,4.6,196,7.1,6.6,0.00063,0.00098,75.4,72.5,10,11,.,.,13.45,0.00,0.00
15min,AgWx,beryljct,423,30JUL2020:21:00:00,83.1,12.99,79.2,80.0,80.2,81.4,78.7,19,22,16,0.723,34.3,36.7,30.1,5.524,5.1,204,13,6.5,0.00067,0.00102,75.0,72.6,10,3,.,.,13.45,0.01,0.00
15min,AgWx,beryljct,423,30JUL2020:21:15:00,81.1,12.97,79.8,80.3,79.8,80.3,79.3,20,22,19,0.671,35.2,36.9,33.7,6.489,6.7,225,5.2,8.1,0.00091,0.00130,74.7,72.6,10,0,.,.,13.46,0.00,0.00
15min,AgWx,beryljct,423,30JUL2020:21:30:00,79.8,12.97,79.1,78.3,79.5,80.5,78.3,20,22,18,0.691,34.8,36.1,32.6,5.393,6.0,216,4.7,7.3,0.00081,0.00119,74.3,72.6,10,0,.,.,13.46,0.00,0.00
15min,AgWx,beryljct,423,30JUL2020:21:45:00,78.5,12.97,79.7,78.7,78.3,78.8,77.7,20,24,18,0.607,34.5,37.7,31.6,6.204,5.6,204,5.9,6.4,0.00071,0.00106,74.0,72.7,10,0,.,.,13.46,0.00,0.00
15min,AgWx,beryljct,423,30JUL2020:22:00:00,77.3,12.97,67.8,71.7,76.9,78.9,71.7,21,32,18,0.837,33.2,40.1,30.9,7.607,5.7,183,14,7.6,0.00071,0.00105,73.6,72.6,10,0,.,.,13.46,0.00,0.00
15min,AgWx,beryljct,423,30JUL2020:22:15:00,75.5,12.95,75.2,73.4,71.5,73.4,69.5,23,31,18,0.501,31.4,38.9,27.2,8.18,7.4,165,8.1,9.0,0.00082,0.00113,73.3,72.7,10,0,.,.,13.46,0.01,0.00
15min,AgWx,beryljct,423,30JUL2020:22:30:00,74.2,12.94,72.3,72.5,72.7,74.0,71.3,21,24,18,0.601,30.2,32.8,27.0,6.072,6.0,184,8.7,7.9,0.00071,0.00102,72.9,72.6,10,0,.,.,13.46,0.00,0.00
15min,AgWx,beryljct,423,30JUL2020:22:45:00,73.7,12.95,75.4,75.1,74.0,75.1,72.4,22,23,21,0.660,32.9,34.9,30.8,6.029,6.2,205,4.6,7.1,0.00073,0.00105,72.6,72.6,10,0,.,.,13.46,0.00,0.00
15min,AgWx,beryljct,423,30JUL2020:23:00:00,73.6,12.92,75.9,76.5,74.7,76.8,71.0,21,29,16,0.526,32.2,37.6,27.6,5.897,6.3,181,19,7.6,0.00076,0.00109,72.2,72.6,10,0,.,.,13.46,0.00,0.00
15min,AgWx,beryljct,423,30JUL2020:23:15:00,73.4,12.93,72.0,73.0,74.4,76.4,72.9,19,20,16,0.532,29.1,30.3,27.5,4.494,5.4,178,5.6,6.8,0.00065,0.00097,71.9,72.5,10,0,.,.,13.46,0.00,0.00
15min,AgWx,beryljct,423,30JUL2020:23:30:00,72.7,12.91,72.9,73.0,72.2,73.3,71.0,23,26,19,0.590,32.5,34.5,28.6,4.341,4.8,185,12,6.2,0.00050,0.00076,71.5,72.5,10,0,.,.,13.46,0.00,0.00
15min,AgWx,beryljct,423,30JUL2020:23:45:00,71.7,12.91,64.7,62.7,69.8,73.5,61.8,28,52,20,0.776,34.0,44.4,29.1,0.877,3.8,171,43,5.4,0.00033,0.00052,71.2,72.4,10,0,.,.,13.46,0.00,0.00
15min,AgWx,beryljct,423,31JUL2020:00:00:00,69.7,12.9,59.1,61.6,63.2,64.9,61.3,41,48,33,0.839,39.0,41.8,34.7,1.293,1.2,275,22,3.2,-0.00019,-0.00025,70.9,72.4,10,0,.,.,13.46,0.00,0.00
15min,AgWx,beryljct,423,31JUL2020:00:15:00,67.7,12.88,61.1,61.0,61.4,62.9,60.2,44,53,36,0.876,39.4,43.1,35.3,1.951,1.4,150,99,3.9,-0.00014,-0.00017,70.6,72.3,10,0,.,.,13.46,0.00,0.00
15min,AgWx,beryljct,423,31JUL2020:00:30:00,66.0,12.88,61.6,59.8,61.2,63.7,59.5,48,58,35,0.873,41.4,45.2,35.4,3.573,1.7,241,57,4.4,-0.00011,-0.00013,70.3,72.2,10,0,.,.,13.47,0.00,0.00
15min,AgWx,bigpiney,439,30JUL2020:00:00:00,55.9,12.74,49.8,50.2,48.2,50.7,46.7,82,87,76,0.956,43.1,45.0,42.6,3.573,3.1,226,8.8,5.2,-0.00012,-0.00015,54.7,52.1,48,0,0,0.0,8.18,0.00,0.00
15min,AgWx,bigpiney,439,30JUL2020:00:15:00,54.8,12.72,48.0,49.8,53.2,55.3,49.8,70,79,66,0.922,43.9,44.9,42.5,4.669,2.3,239,16,4.7,-0.00012,-0.00015,54.7,52.1,48,0,0,0.0,8.18,0.00,0.00
15min,AgWx,bigpiney,439,30JUL2020:00:30:00,53.8,12.71,49.0,50.6,49.8,54.1,46.9,78,86,68,0.920,43.2,44.6,41.4,1.074,2.0,12,82,4.2,-0.00016,-0.00020,54.6,52.1,48,0,0,0.0,8.18,0.00,0.00
15min,AgWx,bigpiney,439,30JUL2020:00:45:00,53.0,12.71,44.7,44.9,47.1,52.4,44.9,82,88,69,0.885,41.9,44.4,40.3,4.45,4.1,196,23,7.1,-0.00008,-0.00008,54.6,52.1,48,0,0,0.0,8.18,0.00,0.00
15min,AgWx,bigpiney,439,30JUL2020:01:00:00,52.0,12.69,45.5,45.6,45.0,45.7,44.6,89,89,87,0.909,41.9,42.6,41.3,4.297,2.7,215,11,4.5,-0.00016,-0.00020,54.6,52.1,48,0,0,0.0,8.18,0.00,0.00
15min,AgWx,bigpiney,439,30JUL2020:01:15:00,51.1,12.69,45.3,45.3,44.8,45.6,44.2,89,90,87,0.898,41.8,42.7,41.2,3.617,3.0,218,9.6,4.2,-0.00015,-0.00018,54.5,52.1,48,0,0,0.0,8.18,0.00,0.00
15min,AgWx,bigpiney,439,30JUL2020:01:30:00,50.3,12.67,44.1,43.6,44.6,45.4,43.4,89,90,88,0.868,41.5,42.2,40.4,3.288,4.2,216,4.1,6.2,-0.00011,-0.00013,54.5,52.2,48,0,0,0.0,8.18,0.00,0.00
15min,AgWx,bigpiney,439,30JUL2020:01:45:00,49.6,12.68,44.0,43.5,43.5,43.8,43.3,91,91,90,0.877,40.9,41.2,40.7,4.516,3.8,227,6.2,4.6,-0.00013,-0.00015,54.5,52.2,48,0,0,0.0,8.18,0.00,0.00
15min,AgWx,bigpiney,439,30JUL2020:02:00:00,48.9,12.67,45.1,44.6,43.4,44.6,42.8,91,93,90,0.913,41.0,42.3,40.3,4.932,4.0,230,8.3,5.1,-0.00013,-0.00015,54.4,52.1,48,0,0,0.0,8.18,0.00,0.00
15min,AgWx,bigpiney,439,30JUL2020:02:15:00,48.5,12.66,47.0,45.9,45.8,46.6,44.6,88,91,86,0.920,42.4,42.9,41.8,6.642,4.9,243,8.0,6.9,-0.00009,-0.00010,54.4,52.2,48,0,0,0.0,8.18,0.00,0.00
15min,AgWx,bigpiney,439,30JUL2020:02:30:00,48.3,12.65,47.5,47.4,47.0,47.6,46.1,84,88,82,0.918,42.4,42.9,42.1,5.744,5.3,244,5.5,6.7,-0.00006,-0.00005,54.4,52.2,48,0,0,0.0,8.18,0.00,0.00
15min,AgWx,bigpiney,439,30JUL2020:02:45:00,48.5,12.64,46.9,47.0,47.0,47.4,46.6,84,85,83,0.916,42.4,42.6,42.2,5.393,6.0,239,5.1,6.9,-0.00004,-0.00003,54.3,52.2,48,0,0,0.0,8.18,0.00,0.00
15min,AgWx,bigpiney,439,30JUL2020:03:00:00,48.7,12.64,47.7,47.8,47.3,47.9,46.9,82,84,80,0.907,42.2,42.3,41.9,6.752,5.9,242,5.5,7.1,-0.00003,-0.00002,54.3,52.2,48,0,0,0.0,8.18,0.00,0.00
15min,AgWx,bigpiney,439,30JUL2020:03:15:00,49.0,12.63,48.8,48.6,48.0,48.6,47.6,79,80,78,0.903,41.9,42.1,41.8,7.563,6.9,243,5.7,8.4,0.00002,0.00004,54.2,52.2,48,0,0,0.0,8.18,0.00,0.00
15min,AgWx,bigpiney,439,30JUL2020:03:30:00,49.3,12.61,47.9,48.0,48.7,49.1,48.0,77,79,76,0.893,41.8,42.0,41.5,3.025,5.9,250,28,9.3,0.00001,0.00003,54.2,52.2,48,0,0,0.0,8.18,0.00,0.00
15min,AgWx,bigpiney,439,30JUL2020:03:45:00,49.6,12.61,46.8,46.9,48.8,50.6,46.8,76,82,71,0.874,41.4,42.0,40.8,4.077,3.8,355,45,6.6,-0.00006,-0.00005,54.2,52.2,48,0,0,0.0,8.18,0.00,0.00
15min,AgWx,bigpiney,439,30JUL2020:04:00:00,49.4,12.61,45.8,46.3,46.8,47.9,46.0,81,83,79,0.871,41.3,42.3,40.9,1.447,5.8,51,6.0,8.4,-0.00003,-0.00001,54.1,52.2,48,0,0,0.0,8.18,0.00,0.00
15min,AgWx,bigpiney,439,30JUL2020:04:15:00,49.1,12.59,46.0,45.4,45.3,46.8,44.4,83,86,79,0.883,40.6,41.5,39.5,3.814,3.0,134,20,4.4,-0.00013,-0.00015,54.1,52.2,48,0,0,0.0,8.18,0.00,0.00
15min,AgWx,bigpiney,439,30JUL2020:04:30:00,48.4,12.59,42.8,43.0,44.5,46.1,43.0,85,88,81,0.802,40.2,41.4,38.9,3.661,4.0,176,25,5.4,-0.00010,-0.00011,54.0,52.2,48,0,0,0.0,8.18,0.00,0.00
15min,AgWx,bigpiney,439,30JUL2020:04:45:00,47.6,12.58,47.1,45.9,45.0,45.9,42.9,83,88,81,0.869,40.2,41.0,38.9,2.543,3.5,198,7.7,4.1,-0.00011,-0.00012,54.0,52.1,48,0,0,0.0,8.18,0.00,0.00
15min,AgWx,bigpiney,439,30JUL2020:05:00:00,46.9,12.57,47.8,47.0,46.5,47.5,45.4,80,82,77,0.858,40.6,41.1,39.6,3.486,3.0,179,16,4.1,-0.00012,-0.00013,53.9,52.2,48,0,0,0.0,8.18,0.00,0.00
15min,AgWx,bigpiney,439,30JUL2020:05:15:00,46.5,12.56,44.8,45.2,46.4,47.8,45.2,79,82,74,0.837,40.2,41.2,38.7,1.929,2.2,156,8.4,3.3,-0.00015,-0.00019,53.9,52.1,48,0,0,0.0,8.18,0.00,0.00
15min,AgWx,bigpiney,439,30JUL2020:05:30:00,46.2,12.54,43.1,42.7,44.6,46.1,42.7,82,85,79,0.769,39.5,41.0,37.7,3.091,3.5,203,15,5.4,-0.00010,-0.00011,53.8,52.1,48,0,0,0.0,8.18,0.00,0.00
15min,AgWx,bigpiney,439,30JUL2020:05:45:00,45.7,12.53,42.8,42.4,42.9,43.2,42.4,84,86,83,0.787,38.4,38.9,37.9,4.275,3.5,214,3.7,4.4,-0.00011,-0.00012,53.8,52.1,48,0,0,0.0,8.18,0.00,0.00
15min,AgWx,bigpiney,439,30JUL2020:06:00:00,45.2,12.53,40.1,40.0,41.0,42.6,40.0,88,89,86,0.750,37.6,38.8,36.6,1.841,4.3,211,5.0,5.4,-0.00009,-0.00010,53.8,52.1,48,0,0,0.0,8.18,0.00,0.00
15min,AgWx,bigpiney,439,30JUL2020:06:15:00,44.5,12.52,39.8,39.0,39.5,40.2,38.9,90,92,89,0.735,36.9,38.1,36.1,3.113,2.7,231,38,4.6,-0.00014,-0.00018,53.7,52.1,48,3,0,0.0,8.18,0.00,0.00
15min,AgWx,bigpiney,439,30JUL2020:06:30:00,43.8,12.54,40.8,41.3,41.1,42.2,39.1,90,93,87,0.771,38.4,39.5,36.7,1.776,1.9,264,21,3.1,-0.00035,-0.00034,53.6,52.1,48,18,0,0.0,8.18,0.00,0.00
15min,AgWx,bigpiney,439,30JUL2020:06:45:00,43.6,12.55,43.7,43.6,42.3,43.6,40.5,89,92,87,0.836,39.3,40.4,37.5,2.718,2.9,262,9.2,4.1,-0.00017,-0.00014,53.6,52.1,48,48,0,0.0,8.18,0.00,0.00
15min,AgWx,bigpiney,439,30JUL2020:07:00:00,43.9,12.56,44.0,43.6,43.5,43.9,43.2,87,88,85,0.833,39.8,40.1,39.2,3.573,3.0,240,11,3.7,0.00000,0.00006,53.5,52.1,48,81,0,0.0,8.18,0.00,0.00
15min,AgWx,bigpiney,439,30JUL2020:07:15:00,45.0,12.57,46.2,46.2,45.5,46.4,43.7,84,87,82,0.881,41.0,41.4,39.9,2.762,3.6,221,9.0,4.6,0.00023,0.00032,53.5,52.0,48,118,0,0.0,8.18,0.00,0.00